Location: Pasadena-CA
(34.1440°N, 118.1100°W)
Time: 12:14:46
(UTC-07:00)

Oscar 19 - Pass Details

Date: 08 July 2022
Orbit: 773 x 790 km, 98.8° (Epoch: 17 August)

Event Time Altitude Azimuth Distance (km) Brightness Sun altitude
Rises 03:05:30 0° 37° (NE) 3,253 15.2 -25.8°
Reaches altitude 10° 03:08:59 10° 62° (ENE) 2,322 13.9 -25.4°
Maximum altitude 03:11:38 14° 93° (E) 2,041 13.1 -25.0°
Drops below altitude 10° 03:14:17 10° 125° (SE) 2,317 13.1 -24.7°
Enters shadow 03:15:36 - 136° (SE) 2,618 13.2 -24.6°
